• In Hungary
  • List of Countries
  • For 7 days
  • Water Temperature
  • Satellite Maps
  • Weather Map
  • News
  • Weather Widgets
  • user-avatar
    Login

    Hourly Weather Brik-Alga

    Today, 22 September, Saturday

    Time Temperature Precipitation Wind Pressure Humidity
    00:00 +7°C° 0 mm 2 mps 734 mmHg 81%
    01:00 +6°C° 0 mm 2 mps 734 mmHg 81%
    02:00 +6°C° 0 mm 2 mps 734 mmHg 82%
    03:00 +6°C° 0 mm 2 mps 734 mmHg 82%
    04:00 +6°C° 0 mm 1 mps 734 mmHg 78%
    05:00 +7°C° 0 mm 1 mps 735 mmHg 77%
    06:00 +7°C° 0 mm 1 mps 735 mmHg 77%
    07:00 +7°C° 0 mm 1 mps 736 mmHg 77%
    08:00 +8°C° 0 mm 2 mps 736 mmHg 73%
    09:00 +10°C° 0 mm 2 mps 736 mmHg 69%
    10:00 +13°C° 0 mm 3 mps 736 mmHg 67%
    11:00 +14°C° 0 mm 3 mps 736 mmHg 66%
    12:00 +16°C° 0 mm 3 mps 736 mmHg 66%
    13:00 +18°C° 0 mm 3 mps 736 mmHg 65%
    14:00 +18°C° 0 mm 3 mps 736 mmHg 68%
    15:00 +18°C° 0 mm 3 mps 736 mmHg 71%
    16:00 +18°C° 0 mm 3 mps 736 mmHg 77%
    17:00 +17°C° 0.1 mm 3 mps 736 mmHg 82%
    18:00 +16°C° 0.1 mm 3 mps 735 mmHg 87%
    19:00 +14°C° 0.1 mm 3 mps 735 mmHg 92%
    20:00 +14°C° 0.1 mm 3 mps 735 mmHg 93%
    21:00 +13°C° 0.1 mm 3 mps 735 mmHg 94%
    22:00 +13°C° 0.1 mm 3 mps 735 mmHg 95%
    23:00 +13°C° 0.1 mm 3 mps 735 mmHg 95%

    Tomorrow, 23 September, Sunday

    Time Temperature Precipitation Wind Pressure Humidity
    00:00 +13°C° 0.1 mm 2 mps 735 mmHg 96%
    01:00 +13°C° 0.1 mm 2 mps 735 mmHg 96%
    02:00 +13°C° 0 mm 2 mps 735 mmHg 96%
    03:00 +13°C° 0 mm 2 mps 735 mmHg 96%
    04:00 +13°C° 0 mm 1 mps 736 mmHg 96%
    05:00 +13°C° 0 mm 1 mps 736 mmHg 96%
    06:00 +13°C° 0 mm 1 mps 736 mmHg 95%
    07:00 +13°C° 0 mm 1 mps 736 mmHg 95%
    08:00 +15°C° 0 mm 1 mps 736 mmHg 90%
    09:00 +16°C° 0 mm 1 mps 736 mmHg 84%
    10:00 +19°C° 0 mm 1 mps 736 mmHg 79%
    11:00 +20°C° 0 mm 1 mps 736 mmHg 74%
    12:00 +20°C° 0 mm 2 mps 736 mmHg 70%
    13:00 +21°C° 0 mm 2 mps 736 mmHg 66%
    14:00 +21°C° 0 mm 2 mps 736 mmHg 65%
    15:00 +23°C° 0 mm 2 mps 735 mmHg 64%
    16:00 +23°C° 0 mm 2 mps 735 mmHg 62%
    17:00 +20°C° 0 mm 2 mps 735 mmHg 68%
    18:00 +19°C° 0 mm 2 mps 735 mmHg 74%
    19:00 +17°C° 0 mm 2 mps 734 mmHg 80%
    20:00 +17°C° 0 mm 2 mps 734 mmHg 81%
    21:00 +16°C° 0 mm 2 mps 734 mmHg 83%
    22:00 +16°C° 0 mm 2 mps 734 mmHg 85%
    23:00 +14°C° 0 mm 3 mps 734 mmHg 85%

    Day after tomorrow, 24 September, Monday

    Time Temperature Precipitation Wind Pressure Humidity
    00:00 +14°C° 0 mm 3 mps 734 mmHg 86%
    01:00 +14°C° 0 mm 3 mps 733 mmHg 87%
    02:00 +13°C° 0 mm 3 mps 733 mmHg 86%
    03:00 +13°C° 0 mm 3 mps 733 mmHg 85%
    04:00 +13°C° 0 mm 3 mps 733 mmHg 84%
    05:00 +13°C° 0 mm 3 mps 733 mmHg 81%
    06:00 +12°C° 0 mm 3 mps 732 mmHg 78%
    07:00 +12°C° 0 mm 4 mps 732 mmHg 74%
    08:00 +14°C° 0 mm 5 mps 732 mmHg 65%
    09:00 +16°C° 0 mm 6 mps 732 mmHg 56%
    10:00 +17°C° 0 mm 7 mps 732 mmHg 46%
    11:00 +18°C° 0 mm 7 mps 732 mmHg 44%
    12:00 +20°C° 0 mm 8 mps 731 mmHg 42%
    13:00 +21°C° 0 mm 8 mps 731 mmHg 39%
    14:00 +21°C° 0 mm 7 mps 731 mmHg 42%
    15:00 +20°C° 0 mm 6 mps 731 mmHg 44%
    16:00 +20°C° 0 mm 5 mps 731 mmHg 46%
    17:00 +18°C° 0 mm 4 mps 731 mmHg 52%
    18:00 +17°C° 0 mm 4 mps 731 mmHg 58%
    19:00 +14°C° 0 mm 3 mps 731 mmHg 64%
    20:00 +14°C° 0 mm 3 mps 731 mmHg 68%
    21:00 +13°C° 0 mm 3 mps 731 mmHg 73%
    22:00 +13°C° 0 mm 3 mps 731 mmHg 77%
    23:00 +13°C° 0 mm 2 mps 731 mmHg 82%

    25 September, Tuesday

    Time Temperature Precipitation Wind Pressure Humidity
    00:00 +12°C° 0 mm 2 mps 731 mmHg 87%
    01:00 +12°C° 0 mm 1 mps 731 mmHg 91%
    02:00 +12°C° 0 mm 1 mps 731 mmHg 91%
    03:00 +12°C° 0 mm 1 mps 731 mmHg 91%
    04:00 +12°C° 0 mm 1 mps 731 mmHg 92%
    05:00 +11°C° 0 mm 1 mps 731 mmHg 93%
    06:00 +11°C° 0 mm 1 mps 731 mmHg 94%
    07:00 +11°C° 0 mm 1 mps 731 mmHg 95%
    08:00 +12°C° 0 mm 2 mps 731 mmHg 89%
    09:00 +11°C° 0 mm 3 mps 731 mmHg 83%
    10:00 +12°C° 0 mm 4 mps 730 mmHg 77%
    11:00 +14°C° 0 mm 4 mps 730 mmHg 71%
    12:00 +15°C° 0 mm 5 mps 730 mmHg 65%
    13:00 +16°C° 0 mm 6 mps 730 mmHg 59%
    14:00 +16°C° 0 mm 5 mps 730 mmHg 57%
    15:00 +16°C° 0 mm 5 mps 730 mmHg 55%
    16:00 +16°C° 0 mm 5 mps 730 mmHg 53%
    17:00 +15°C° 0 mm 4 mps 730 mmHg 54%
    18:00 +15°C° 0 mm 4 mps 729 mmHg 54%
    19:00 +14°C° 0 mm 4 mps 729 mmHg 55%
    20:00 +14°C° 0 mm 4 mps 729 mmHg 53%
    21:00 +14°C° 0 mm 5 mps 729 mmHg 50%
    22:00 +14°C° 0 mm 6 mps 728 mmHg 48%
    23:00 +14°C° 0 mm 6 mps 728 mmHg 48%

    26 September, Wednesday

    Time Temperature Precipitation Wind Pressure Humidity
    00:00 +14°C° 0 mm 6 mps 728 mmHg 48%
    01:00 +14°C° 0 mm 6 mps 728 mmHg 48%
    02:00 +14°C° 0.1 mm 6 mps 729 mmHg 56%
    03:00 +13°C° 0.1 mm 5 mps 729 mmHg 64%
    04:00 +13°C° 0.1 mm 5 mps 730 mmHg 72%
    05:00 +12°C° 0.1 mm 4 mps 730 mmHg 75%
    06:00 +11°C° 0.1 mm 4 mps 730 mmHg 79%
    07:00 +10°C° 0.1 mm 4 mps 731 mmHg 83%
    08:00 +11°C° 0 mm 4 mps 731 mmHg 78%
    09:00 +11°C° 0 mm 4 mps 731 mmHg 73%
    10:00 +12°C° 0 mm 5 mps 732 mmHg 67%
    11:00 +11°C° 0.6 mm 4 mps 732 mmHg 71%
    12:00 +10°C° 0.6 mm 4 mps 732 mmHg 75%
    13:00 +8°C° 0.6 mm 4 mps 733 mmHg 79%
    14:00 +8°C° 0.2 mm 4 mps 733 mmHg 79%
    15:00 +8°C° 0.2 mm 4 mps 733 mmHg 78%
    16:00 +8°C° 0.2 mm 4 mps 734 mmHg 78%
    17:00 +8°C° 0.1 mm 4 mps 734 mmHg 80%
    18:00 +9°C° 0.1 mm 3 mps 734 mmHg 81%
    19:00 +8°C° 0.1 mm 3 mps 734 mmHg 83%
    20:00 +8°C° 0 mm 3 mps 734 mmHg 83%
    21:00 +8°C° 0 mm 3 mps 734 mmHg 83%
    22:00 +8°C° 0 mm 3 mps 734 mmHg 83%
    23:00 +7°C° 0 mm 3 mps 734 mmHg 84%

    27 September, Thursday

    Time Temperature Precipitation Wind Pressure Humidity
    00:00 +7°C° 0 mm 3 mps 734 mmHg 85%
    01:00 +6°C° 0 mm 2 mps 734 mmHg 87%
    02:00 +5°C° 0 mm 2 mps 734 mmHg 89%
    03:00 +5°C° 0 mm 2 mps 734 mmHg 90%
    04:00 +3°C° 0 mm 3 mps 734 mmHg 92%
    05:00 +3°C° 0 mm 3 mps 733 mmHg 93%
    06:00 +3°C° 0 mm 3 mps 733 mmHg 93%
    07:00 +2°C° 0 mm 3 mps 733 mmHg 94%
    08:00 +3°C° 0 mm 4 mps 733 mmHg 88%
    09:00 +3°C° 0 mm 5 mps 733 mmHg 82%
    10:00 +4°C° 0 mm 6 mps 733 mmHg 76%
    11:00 +4°C° 0 mm 6 mps 733 mmHg 70%
    12:00 +5°C° 0 mm 6 mps 732 mmHg 63%
    13:00 +6°C° 0 mm 7 mps 732 mmHg 57%
    14:00 +6°C° 0 mm 7 mps 732 mmHg 56%
    15:00 +8°C° 0 mm 7 mps 731 mmHg 55%
    16:00 +8°C° 0 mm 7 mps 731 mmHg 53%
    17:00 +8°C° 0 mm 7 mps 731 mmHg 56%
    18:00 +6°C° 0 mm 7 mps 730 mmHg 59%
    19:00 +5°C° 0 mm 6 mps 730 mmHg 62%
    20:00 +5°C° 0.1 mm 7 mps 730 mmHg 64%
    21:00 +5°C° 0.1 mm 8 mps 729 mmHg 65%
    22:00 +5°C° 0.1 mm 8 mps 729 mmHg 66%
    23:00 +4°C° 0.2 mm 8 mps 728 mmHg 70%
    Show more